Home   Weather   Washington DC   Past weeks

Flag for USA Past Weather in Washington DC, USA — Yesterday and Last 2 Weeks

Now
72 °F

Passing clouds.


Feels Like: 73 °F
Forecast: 66 / 85 °F
Wind: No wind

Location: Reagan National Airport

Current Time: Jul 20, 2018 at 5:04:53 am

Latest Report: Jul 20, 2018 at 3:52 am


Visibility: 10 mi

Pressure: 30.10 "Hg

Humidity: 76%

Dew Point: 64 °F

Location of Washington DCLocation

Past Weather in Washington DC — Graph

°F

Washington DC Temperature Yesterday

Maximum temperature yesterday: 87 °F (at 3:52 pm)
Minimum temperature yesterday: 71 °F (at 3:52 am)
Average temperature yesterday: 79 °F

High & Low Weather Summary for the Past Weeks

 TemperatureHumidityPressure
High97 °F (Jul 16, 3:17 pm)91% (Jul 17, 3:58 pm)30.38 "Hg (Jul 17, 3:58 pm)
Low64 °F (Jul 8, 5:52 am)26% (Jul 8, 2:52 pm)29.78 "Hg (Jul 17, 4:52 pm)
Average81 °F56%30.09 "Hg
* Reported Jul 5 2:52 am — Jul 20 2:52 am, Washington DC. Weather by CustomWeather, © 2018

Note: Actual official high and low records may vary slightly from our data, if they occured in-between our weather recording intervals... More about our weather records

Advertising

Washington DC Weather History for the Previous 24 Hours

Scroll right to see more
 ConditionsComfort  
Time TempWeatherWind HumidityBarometerVisibility
2:52 am
Fri, Jul 20
73 °FPassing clouds.6 mph71%30.10 "Hg10 mi
1:52 am74 °FPassing clouds.6 mph67%30.10 "Hg10 mi
12:52 am75 °FPassing clouds.6 mph60%30.10 "Hg10 mi
11:52 pm
Thu, Jul 19
76 °FHigh level clouds.6 mph56%30.10 "Hg10 mi
10:52 pm77 °FPassing clouds.5 mph50%30.09 "Hg10 mi
9:52 pm79 °FPassing clouds.3 mph47%30.08 "Hg10 mi
8:52 pm80 °FHigh level clouds.9 mph47%30.06 "Hg10 mi
7:52 pm82 °FHigh level clouds.8 mph46%30.05 "Hg10 mi
6:52 pm84 °FPartly sunny.14 mph41%30.05 "Hg10 mi
5:52 pm86 °FPartly sunny.8 mph36%30.05 "Hg10 mi
4:52 pm87 °FBroken clouds.7 mph31%30.06 "Hg10 mi
3:52 pm87 °FPartly sunny.6 mph32%30.06 "Hg10 mi
2:52 pm86 °FBroken clouds.5 mph33%30.07 "Hg10 mi
1:52 pm85 °FBroken clouds.5 mph36%30.09 "Hg10 mi
12:52 pm84 °FBroken clouds.5 mph38%30.10 "Hg10 mi
11:52 am84 °FScattered clouds.5 mph38%30.11 "Hg10 mi
10:52 am82 °FScattered clouds.6 mph40%30.11 "Hg10 mi
9:52 am79 °FPassing clouds.8 mph44%30.11 "Hg10 mi
8:52 am77 °FPassing clouds.10 mph48%30.11 "Hg10 mi
7:52 am75 °FPassing clouds.8 mph52%30.09 "Hg10 mi
6:52 am73 °FPassing clouds.8 mph59%30.07 "Hg10 mi
5:52 am73 °FPassing clouds.9 mph59%30.06 "Hg10 mi
Weather by CustomWeather, © 2018

See weather overview